Location: Unspecified
(0.0000°N, 0.0000°E)
Time: 02:14:07
(UTC+02:00)

HO-68 - Visible Passes

Search period start: 28 August 2015 00:00
Search period end: 07 September 2015 00:00
Orbit: 1193 x 1204 km, 100.2° (Epoch: 27 August)

Date Brightness Start Highest point End Pass type
(mag) Time Alt. Az. Time Alt. Az. Time Alt. Az.
28 Aug ? 21:55:36 43° NE 21:55:36 43° NE 22:00:56 10° N visible
28 Aug ? 23:45:03 13° WNW 23:45:03 13° WNW 23:46:01 10° WNW visible
29 Aug ? 21:38:31 32° NE 21:38:31 32° NE 21:43:33 10° NNE visible
29 Aug ? 23:27:58 19° WNW 23:27:58 19° WNW 23:30:24 10° NW visible
30 Aug ? 21:21:26 23° ENE 21:21:26 23° ENE 21:25:51 10° NNE visible
30 Aug ? 23:10:53 26° WNW 23:10:53 26° WNW 23:14:18 10° NW visible
31 Aug ? 21:04:21 16° ENE 21:04:21 16° ENE 21:07:37 10° NE visible
31 Aug ? 22:53:49 35° NW 22:53:49 35° NW 22:57:54 10° NNW visible
01 Sep ? 22:36:44 43° NNW 22:36:44 43° NNW 22:41:16 10° NNW visible
02 Sep ? 22:19:40 46° N 22:19:40 46° N 22:24:25 10° N visible
03 Sep ? 22:02:36 41° NNE 22:02:36 41° NNE 22:07:21 10° N visible
04 Sep ? 21:45:32 33° NE 21:45:32 33° NE 21:50:05 10° N visible
04 Sep ? 23:35:00 14° WNW 23:35:00 14° WNW 23:36:15 10° NW visible
05 Sep ? 21:28:29 25° NE 21:28:29 25° NE 21:32:32 10° NNE visible
05 Sep ? 23:17:56 20° WNW 23:17:56 20° WNW 23:20:19 10° NW visible
06 Sep ? 21:11:26 18° ENE 21:11:26 18° ENE 21:14:34 10° NNE visible
06 Sep ? 23:00:53 27° NW 23:00:53 27° NW 23:04:02 10° NNW visible
